User: anonymous   Login
Location: Unspecified
(0.0000°N, 0.0000°E)
Time: 03:39:14
(UTC+00:00)
Language:

NOSS 8 (E) - Orbit

View from above orbital plane
View from above orbital plane
View from above satellite
View from above satellite

Ground track
Ground track

The orbit data is extracted from the following two-line orbital elements,

1 18009U 87043E   17037.25431214 0.00000800  00000-0  13699-3 0    02
2 18009  63.3360 104.7549 0843559  36.2127 323.7873 13.44633803    04
Epoch (UTC): 06 February 2017 06:06:12
Eccentricity: 0.0843559
inclination: 63.3360°
perigee height: 462 km
apogee height: 1722 km
right ascension of ascending node: 104.7549°
argument of perigee: 36.2127°
revolutions per day: 13.44633803
mean anomaly at epoch: 323.7873°
orbit number at epoch: 0

The dashed part of the orbit path shows where the satellite is in the earth's shadow,  

DLR